Home > Weather > Fort-de-France > Past weeks

Flag for Martinique Weather for the Past 2 Weeks in Fort-de-France, Martinique

Now
91 °F

Broken clouds.


Feels Like: 97 °F
Forecast: 78 / 87 °F
Wind: 14 mph from East

Location: Le Lamentin Airport

Current Time: Apr 29, 2016 at 1:05:51 PM

Latest Report: Apr 29, 2016 at 12:30 PM


Visibility: N/A

Pressure: 29.92 "Hg

Humidity: 49%

Dew Point: 70 °F

Location of Fort-de-FranceLocation

Historic Weather in Fort-de-France — Graph

°F

Fort-de-France Temperature Yesterday

Maximum temperature yesterday: 90 °F (at 11:30 AM)
Minimum temperature yesterday: 79 °F (at 4:00 AM)
Average temperature yesterday: 84 °F

High & Low Weather Summary for the Past Weeks

 TemperatureHumidityPressure
High91 °F (Apr 17, 1:00 PM)94% (Apr 14, 9:30 PM)30.01 "Hg (Apr 14, 9:30 PM)
Low70 °F (Apr 15, 3:00 AM)52% (Apr 15, 1:30 PM)29.83 "Hg (Apr 25, 2:00 PM)
Average82 °F74%29.92 "Hg
* Reported Apr 14 12:00 Noon — Apr 29 12:00 Noon, Fort-de-France, Weather by CustomWeather, © 2016

Note: Actual official high and low records may vary slightly from our data, if they occured in-between our weather recording intervals... More about our weather records

Advertising

Fort-de-France Weather History for the Previous 24 Hours

Scroll right to see more
 ConditionsComfort  
Time TempWeatherWind HumidityBarometerVisibility
12:00 PM
Fri, Apr 29
90 °FPartly sunny.14 mph55%29.92 "HgN/A
11:30 AM88 °FPartly sunny.15 mph59%29.92 "HgN/A
11:00 AM88 °FPartly sunny.14 mph59%29.95 "HgN/A
10:30 AM88 °FBroken clouds.14 mph62%29.95 "HgN/A
10:00 AM90 °FScattered clouds.14 mph55%29.95 "HgN/A
9:30 AM88 °FScattered clouds.12 mph55%29.95 "HgN/A
9:00 AM88 °FPartly sunny.9 mph59%29.95 "HgN/A
8:30 AM84 °FPartly sunny.14 mph66%29.95 "HgN/A
8:00 AM84 °FPartly sunny.12 mph66%29.95 "HgN/A
7:30 AM84 °FBroken clouds.8 mph70%29.95 "HgN/A
7:00 AM81 °FPartly sunny.3 mph79%29.95 "HgN/A
6:30 AM79 °FBroken clouds.3 mph79%29.92 "HgN/A
6:00 AM79 °FPassing clouds.5 mph79%29.92 "HgN/A
5:30 AM79 °FPassing clouds.5 mph79%29.92 "HgN/A
5:00 AM79 °FPartly cloudy.6 mph79%29.92 "HgN/A
4:30 AM79 °FPartly cloudy.5 mph79%29.89 "HgN/A
4:00 AM79 °FPassing clouds.6 mph79%29.89 "HgN/A
3:30 AM79 °FPassing clouds.8 mph79%29.89 "HgN/A
3:00 AM79 °FPassing clouds.6 mph79%29.89 "HgN/A
2:30 AM79 °FPassing clouds.5 mph79%29.89 "HgN/A
2:00 AM79 °FPassing clouds.6 mph79%29.92 "HgN/A
1:00 AM81 °FPassing clouds.10 mph79%29.92 "HgN/A
12:30 AM81 °FPassing clouds.8 mph79%29.92 "HgN/A
12:00 AM81 °FPassing clouds.10 mph74%29.95 "HgN/A
11:30 PM
Thu, Apr 28
81 °FPassing clouds.9 mph79%29.95 "HgN/A
10:30 PM81 °FPartly cloudy.8 mph74%29.95 "HgN/A
10:00 PM81 °FPassing clouds.7 mph74%29.95 "HgN/A
9:00 PM81 °FPassing clouds.10 mph79%29.95 "HgN/A
8:30 PM81 °FPassing clouds.9 mph79%29.92 "HgN/A
8:00 PM81 °FOvercast.9 mph79%29.92 "HgN/A
7:00 PM82 °FMostly cloudy.10 mph74%29.92 "HgN/A
6:30 PM82 °FMostly cloudy.12 mph74%29.92 "HgN/A
6:00 PM82 °FBroken clouds.14 mph70%29.89 "HgN/A
5:30 PM84 °FScattered clouds.16 mph66%29.89 "HgN/A
5:00 PM86 °FBroken clouds.16 mph66%29.89 "HgN/A
4:30 PM86 °FScattered clouds.15 mph66%29.89 "HgN/A
4:00 PM88 °FPartly sunny.17 mph59%29.89 "HgN/A
3:30 PM88 °FPartly sunny.16 mph59%29.89 "HgN/A
3:00 PM88 °FPartly sunny.17 mph59%29.89 "HgN/A
2:30 PM88 °FPartly sunny.18 mph62%29.89 "HgN/A
2:00 PM88 °FBroken clouds.18 mph59%29.92 "HgN/A
1:30 PM88 °FScattered clouds.21 mph59%29.92 "HgN/A
1:00 PM90 °FPartly sunny.20 mph59%29.92 "HgN/A
Weather by CustomWeather, © 2016

See weather overviewHow to use our weather pages